Location: Nairn
(57.5833°N, 3.8667°W)
Time: 02:24:29
(UTC+00:00)

CZ-2D R/B - Pass Details

Date: 07 August 2020
Orbit: 791 x 845 km, 98.7° (Epoch: 27 September)

Event Time Altitude Azimuth Distance (km) Brightness Sun altitude
Rises 02:06:52 0° 17° (NNE) 3,407 7.3 -12.9°
Reaches altitude 10° 02:09:15 10° 19° (NNE) 2,473 6.1 -12.8°
Maximum altitude 02:14:45 76° 106° (ESE) 878 2.3 -12.4°
Enters shadow 02:19:23 15° 191° (S) 2,131 3.7 -12.2°
